#timestamp,LO_Frequency,Hit 
1502136015.9,286047129.9,N
1502136035.7,286047132.3,N
1502136055.5,286047131.1,N
1502136075.4,286047133.3,N
1502136095.2,286047133.6,N
1502136115.0,286047134.7,N
1502136115.9,286047134.7,N
1502136135.8,286047133.1,N
1502136155.6,286047131.8,N
1502136175.4,286047129.5,N
1502136195.3,286047131.9,N
1502136215.1,286047132.4,N
1502136216.0,286047132.4,N
1502136235.8,286047131.6,N
1502136255.7,286047135.5,N
1502136275.5,286047133.0,N
1502136295.3,286047134.8,N
1502136315.2,286047133.3,N
1502136335.9,286047132.9,N
1502136355.7,286047134.9,N
1502136375.5,286047136.2,N
1502136395.4,286047137.1,N
1502136415.2,286047134.6,N
1502136435.0,286047134.9,N
1502136435.9,286047134.9,N
1502136455.8,286047137.0,N
1502136475.6,286047136.7,N
1502136495.4,286047137.0,N
1502136515.3,286047136.8,N
1502136535.1,286047138.2,N
1502136536.0,286047138.2,N
1502136555.8,286047136.3,N
1502136575.7,286047135.7,N
1502136595.5,286047138.0,N
1502136615.3,286047136.1,N
1502136635.1,286047136.0,N
1502136655.9,286047137.8,N
1502136675.7,286047137.8,N
1502136695.5,286047139.4,N
1502136715.4,286047142.0,N
1502136735.2,286047139.4,N
1502136755.0,286047139.4,N
1502136755.9,286047139.4,N
1502136775.8,286047139.9,N
1502136795.6,286047139.5,N
1502136815.4,286047141.8,N
1502136835.3,286047140.2,N
1502136855.1,286047142.0,N
1502136856.0,286047142.0,N
1502136875.8,286047141.5,N
1502136895.7,286047141.2,N
1502136915.5,286047141.1,N
1502136935.3,286047142.3,N
1502136955.1,286047143.0,N
1502136975.9,286047143.2,N
1502136995.7,286047143.5,N
1502137015.5,286047142.1,N
1502137035.4,286047143.1,N
1502137055.2,286047143.2,N
1502137075.0,286047142.1,N
1502137075.9,286047142.1,N
1502137095.8,286047144.0,N
1502137115.6,286047142.9,N
1502137135.4,286047143.2,N
1502137155.3,286047143.1,N
1502137175.1,286047145.2,N
1502137176.0,286047145.2,N
1502137195.8,286047144.2,N
1502137215.7,286047146.4,N
1502137235.5,286047145.0,N
1502137255.3,286047146.1,N
1502137275.1,286047146.4,N
1502137295.9,286047146.7,N
1502137315.7,286047146.5,N
1502137335.5,286047146.4,N
1502137355.4,286047144.6,N
1502137375.2,286047145.0,N
1502137395.0,286047146.5,N
1502137395.9,286047146.5,N
1502137415.8,286047146.4,N
1502137435.6,286047147.9,N
1502137455.4,286047150.0,N
1502137475.3,286047147.1,N
1502137495.1,286047150.0,N
1502137496.0,286047150.0,N
1502137515.8,286047149.6,N
1502137535.7,286047149.1,N
1502137555.5,286047147.6,N
1502137575.3,286047146.9,N
1502137595.1,286047149.5,N
1502137615.9,286047147.0,N
1502137635.7,286047147.9,N
1502137655.5,286047148.2,N
1502137675.4,286047149.9,N
1502137695.2,286047147.8,N
1502137715.0,286047147.4,N
1502137715.9,286047147.4,N
1502137735.8,286047146.9,N
1502137755.6,286047149.5,N
1502137775.4,286047148.7,N
1502137795.3,286047148.7,N
1502137815.1,286047149.2,N
1502137816.0,286047149.2,N
1502137835.8,286047149.8,N
1502137855.7,286047148.5,N
1502137875.5,286047151.4,N
1502137895.3,286047151.1,N
1502137915.1,286047149.6,N
1502137935.9,286047150.6,N
1502137955.7,286047151.3,N
1502137975.5,286047150.7,N
1502137995.4,286047151.3,N
1502138015.2,286047152.8,N
1502138035.0,286047150.2,N
1502138035.9,286047150.2,N
1502138055.8,286047152.7,N
1502138075.6,286047154.7,N
1502138095.4,286047154.0,N
1502138115.3,286047154.2,N
1502138135.1,286047154.8,N
1502138136.0,286047154.8,N
1502138155.8,286047153.3,N
1502138175.7,286047156.0,N
1502138195.5,286047156.4,N
1502138215.3,286047154.4,N
1502138235.1,286047153.6,N
1502138255.9,286047155.6,N
1502138275.7,286047155.6,N
1502138295.5,286047157.8,N
1502138315.4,286047159.5,N
1502138335.2,286047159.8,N
1502138355.0,286047158.1,N
1502138355.9,286047158.1,N
1502138375.8,286047159.0,N
1502138395.6,286047157.2,N
1502138415.4,286047159.1,N
1502138435.3,286047158.8,N
1502138455.1,286047159.3,N
1502138456.0,286047159.3,N
1502138475.8,286047157.2,N
1502138495.7,286047159.0,N
1502138515.5,286047158.2,N
1502138535.3,286047158.3,N
1502138555.1,286047161.0,N
1502138575.9,286047160.0,N
1502138595.7,286047158.1,N
1502138615.5,286047161.1,N
1502138635.4,286047160.7,N
1502138655.2,286047160.6,N
1502138675.0,286047161.2,N
1502138675.9,286047161.2,N
1502138695.8,286047160.3,N
1502138715.6,286047160.3,N
1502138735.4,286047162.8,N
1502138755.3,286047161.9,N
1502138775.1,286047164.2,N
1502138776.0,286047164.2,N
1502138795.8,286047161.4,N
1502138815.6,286047161.5,N
1502138835.5,286047164.3,N
1502138855.3,286047161.3,N
1502138875.1,286047164.2,N
1502138895.9,286047163.6,N
1502138915.7,286047164.2,N
1502138935.5,286047165.5,N
1502138955.4,286047163.1,N
1502138975.2,286047163.7,N
1502138995.0,286047164.5,N
1502138995.9,286047164.5,N
1502139015.8,286047163.2,N
1502139035.6,286047162.9,N
1502139055.4,286047163.0,N
1502139075.3,286047165.5,N
1502139095.1,286047163.9,N
1502139096.0,286047163.9,N
1502139115.8,286047164.1,N
1502139135.6,286047162.9,N
1502139155.5,286047167.0,N
1502139175.3,286047164.9,N
1502139195.1,286047167.6,N
1502139215.9,286047166.8,N
1502139235.7,286047166.3,N
1502139255.5,286047166.4,N
1502139275.4,286047167.4,N
1502139295.2,286047169.2,N
1502139315.0,286047169.2,N
1502139315.9,286047169.2,N
1502139335.8,286047170.4,N
1502139355.6,286047171.8,N
1502139375.4,286047170.5,N
1502139395.3,286047167.9,N
1502139415.1,286047170.7,N
1502139416.0,286047170.7,N
1502139435.8,286047170.2,N
1502139455.6,286047170.8,N
1502139475.5,286047168.5,N
1502139495.3,286047168.5,N
1502139515.1,286047168.5,N
1502139535.9,286047169.0,N
1502139555.7,286047169.4,N
1502139575.5,286047170.6,N
1502139595.4,286047169.9,N
